Torna al catalogo

TITAN 34D TRANSTAGE R/B

AttivoMEO
NORAD 14677·ROCKET BODY·🇺🇸 United States

Lanciato Jan 31, 1984 da Cape Canaveral Space Force Station

Loading…

Prossimi Passaggi (prossime 24 ore)

TLE

AggiornatoSource: Space-Track

Epoca: Sep 14, 2026, 03:22 UTC

1 14677U 84009C   26257.14058582 -.00000343  00000-0  00000-0 0  9992
2 14677   6.1086   1.6304 1037777 104.9256 266.7805  0.99450400 26756

Traccia TITAN 34D TRANSTAGE R/B in tempo reale con AllMySat

Download on the App Store